Location: Newark
(49.9819°N, 3.0344°E)
Time: 02:04:15
(UTC+00:00)

ISS - Pass Details

Date: 25 January 2020
Orbit: 415 x 422 km, 51.6° (Epoch: 26 February)

Event Time Altitude Azimuth Distance (km) Brightness Sun altitude
Rises 18:07:42 0° 243° (WSW) 2,374 1.6 -15.6°
Reaches altitude 10° 18:09:48 10° 241° (WSW) 1,510 0.2 -15.9°
Maximum altitude 18:13:11 68° 158° (SSE) 458 -3.7 -16.5°
Enters shadow 18:14:05 44° 91° (E) 599 -3.5 -16.6°
